• In Portugal
  • List of Countries
  • For 7 days
  • Water Temperature
  • Satellite Maps
  • Weather Map
  • Weather Widgets
  • user-avatar
    Login

    Hourly Weather Suhochevo

    Today, 21 September, Friday

    Time Temperature Precipitation Wind Pressure Humidity
    00:00 +17°C° 0 mm 2 mps 749 mmHg 88%
    01:00 +18°C° 0 mm 1 mps 749 mmHg 89%
    02:00 +16°C° 0 mm 1 mps 749 mmHg 90%
    03:00 +16°C° 0 mm 1 mps 750 mmHg 90%
    04:00 +16°C° 0 mm 1 mps 750 mmHg 90%
    05:00 +15°C° 0 mm 1 mps 750 mmHg 91%
    06:00 +18°C° 0 mm 1 mps 750 mmHg 85%
    07:00 +19°C° 0 mm 1 mps 750 mmHg 80%
    08:00 +20°C° 0 mm 1 mps 751 mmHg 73%
    09:00 +22°C° 0 mm 1 mps 751 mmHg 67%
    10:00 +23°C° 0 mm 1 mps 751 mmHg 60%
    11:00 +25°C° 0 mm 2 mps 751 mmHg 54%
    12:00 +25°C° 0 mm 2 mps 751 mmHg 53%
    13:00 +26°C° 0 mm 2 mps 750 mmHg 51%
    14:00 +27°C° 0 mm 2 mps 750 mmHg 49%
    15:00 +26°C° 0 mm 1 mps 750 mmHg 54%
    16:00 +25°C° 0 mm 1 mps 750 mmHg 59%
    17:00 +22°C° 0 mm 0 mps 750 mmHg 63%
    18:00 +23°C° 0 mm 1 mps 750 mmHg 66%
    19:00 +22°C° 0 mm 1 mps 750 mmHg 68%
    20:00 +21°C° 0 mm 1 mps 750 mmHg 71%
    21:00 +19°C° 0 mm 2 mps 750 mmHg 72%
    22:00 +19°C° 0 mm 2 mps 750 mmHg 74%
    23:00 +18°C° 0 mm 2 mps 750 mmHg 75%

    Tomorrow, 22 September, Saturday

    Time Temperature Precipitation Wind Pressure Humidity
    00:00 +18°C° 0 mm 2 mps 750 mmHg 76%
    01:00 +18°C° 0 mm 2 mps 750 mmHg 76%
    02:00 +18°C° 0 mm 2 mps 750 mmHg 77%
    03:00 +17°C° 0 mm 2 mps 750 mmHg 77%
    04:00 +17°C° 0 mm 2 mps 750 mmHg 77%
    05:00 +17°C° 0 mm 2 mps 749 mmHg 76%
    06:00 +18°C° 0 mm 3 mps 749 mmHg 73%
    07:00 +19°C° 0 mm 3 mps 749 mmHg 69%
    08:00 +20°C° 0 mm 4 mps 749 mmHg 65%
    09:00 +22°C° 0 mm 4 mps 749 mmHg 60%
    10:00 +23°C° 0 mm 5 mps 749 mmHg 55%
    11:00 +26°C° 0 mm 5 mps 749 mmHg 50%
    12:00 +27°C° 0 mm 5 mps 748 mmHg 49%
    13:00 +27°C° 0 mm 6 mps 748 mmHg 47%
    14:00 +28°C° 0 mm 6 mps 747 mmHg 45%
    15:00 +27°C° 0 mm 5 mps 747 mmHg 49%
    16:00 +26°C° 0 mm 4 mps 746 mmHg 53%
    17:00 +24°C° 0 mm 3 mps 746 mmHg 58%
    18:00 +23°C° 0 mm 4 mps 746 mmHg 56%
    19:00 +23°C° 0 mm 4 mps 745 mmHg 55%
    20:00 +22°C° 0 mm 5 mps 745 mmHg 54%
    21:00 +22°C° 0 mm 5 mps 745 mmHg 53%
    22:00 +21°C° 0 mm 5 mps 744 mmHg 52%
    23:00 +21°C° 0 mm 5 mps 744 mmHg 51%

    Day after tomorrow, 23 September, Sunday

    Time Temperature Precipitation Wind Pressure Humidity
    00:00 +20°C° 0 mm 5 mps 744 mmHg 53%
    01:00 +20°C° 0 mm 5 mps 744 mmHg 54%
    02:00 +19°C° 0 mm 5 mps 743 mmHg 55%
    03:00 +17°C° 0.2 mm 5 mps 743 mmHg 62%
    04:00 +15°C° 0.2 mm 5 mps 743 mmHg 69%
    05:00 +13°C° 0.2 mm 6 mps 743 mmHg 76%
    06:00 +11°C° 0.4 mm 6 mps 743 mmHg 79%
    07:00 +10°C° 0.4 mm 6 mps 743 mmHg 81%
    08:00 +9°C° 0.4 mm 6 mps 743 mmHg 84%
    09:00 +9°C° 0.3 mm 5 mps 744 mmHg 83%
    10:00 +9°C° 0.3 mm 5 mps 744 mmHg 82%
    11:00 +10°C° 0.3 mm 4 mps 745 mmHg 81%
    12:00 +10°C° 0.2 mm 4 mps 745 mmHg 81%
    13:00 +11°C° 0.2 mm 4 mps 745 mmHg 81%
    14:00 +11°C° 0.2 mm 4 mps 745 mmHg 81%
    15:00 +11°C° 0 mm 4 mps 745 mmHg 81%
    16:00 +11°C° 0 mm 4 mps 745 mmHg 80%
    17:00 +11°C° 0 mm 4 mps 745 mmHg 79%
    18:00 +11°C° 0 mm 4 mps 745 mmHg 81%
    19:00 +10°C° 0 mm 3 mps 745 mmHg 82%
    20:00 +10°C° 0 mm 3 mps 745 mmHg 83%
    21:00 +9°C° 0.1 mm 3 mps 745 mmHg 86%
    22:00 +9°C° 0.1 mm 3 mps 745 mmHg 89%
    23:00 +8°C° 0.1 mm 3 mps 745 mmHg 91%

    24 September, Monday

    Time Temperature Precipitation Wind Pressure Humidity
    00:00 +8°C° 0 mm 3 mps 745 mmHg 91%
    01:00 +8°C° 0 mm 3 mps 745 mmHg 91%
    02:00 +8°C° 0 mm 3 mps 744 mmHg 91%
    03:00 +7°C° 0 mm 3 mps 745 mmHg 91%
    04:00 +7°C° 0 mm 3 mps 745 mmHg 91%
    05:00 +7°C° 0 mm 3 mps 745 mmHg 92%
    06:00 +8°C° 0 mm 3 mps 744 mmHg 87%
    07:00 +9°C° 0 mm 3 mps 744 mmHg 83%
    08:00 +10°C° 0 mm 3 mps 744 mmHg 78%
    09:00 +11°C° 0 mm 4 mps 744 mmHg 72%
    10:00 +13°C° 0 mm 4 mps 744 mmHg 65%
    11:00 +14°C° 0 mm 5 mps 743 mmHg 58%
    12:00 +14°C° 0.1 mm 5 mps 742 mmHg 60%
    13:00 +13°C° 0.1 mm 5 mps 742 mmHg 63%
    14:00 +13°C° 0.1 mm 6 mps 741 mmHg 65%
    15:00 +11°C° 1.7 mm 7 mps 739 mmHg 72%
    16:00 +10°C° 1.7 mm 8 mps 738 mmHg 79%
    17:00 +8°C° 1.7 mm 9 mps 737 mmHg 86%
    18:00 +8°C° 2.3 mm 10 mps 735 mmHg 87%
    19:00 +9°C° 2.3 mm 10 mps 733 mmHg 87%
    20:00 +9°C° 2.3 mm 11 mps 731 mmHg 88%
    21:00 +9°C° 0.4 mm 10 mps 730 mmHg 86%
    22:00 +8°C° 0.4 mm 10 mps 729 mmHg 85%
    23:00 +8°C° 0.4 mm 10 mps 728 mmHg 83%

    25 September, Tuesday

    Time Temperature Precipitation Wind Pressure Humidity
    00:00 +8°C° 0.2 mm 10 mps 728 mmHg 84%
    01:00 +7°C° 0.2 mm 10 mps 728 mmHg 85%
    02:00 +7°C° 0.2 mm 10 mps 728 mmHg 85%
    03:00 +7°C° 0.3 mm 10 mps 728 mmHg 86%
    04:00 +7°C° 0.3 mm 10 mps 729 mmHg 86%
    05:00 +7°C° 0.3 mm 10 mps 729 mmHg 87%
    06:00 +7°C° 0.4 mm 10 mps 730 mmHg 86%
    07:00 +6°C° 0.4 mm 10 mps 730 mmHg 86%
    08:00 +6°C° 0.4 mm 9 mps 731 mmHg 86%
    09:00 +6°C° 0.6 mm 10 mps 732 mmHg 85%
    10:00 +6°C° 0.6 mm 10 mps 733 mmHg 84%
    11:00 +6°C° 0.6 mm 10 mps 734 mmHg 83%
    12:00 +6°C° 0.8 mm 10 mps 735 mmHg 83%
    13:00 +6°C° 0.8 mm 10 mps 736 mmHg 82%
    14:00 +6°C° 0.8 mm 10 mps 737 mmHg 82%
    15:00 +6°C° 0.5 mm 10 mps 738 mmHg 81%
    16:00 +5°C° 0.5 mm 9 mps 739 mmHg 81%
    17:00 +5°C° 0.5 mm 9 mps 740 mmHg 80%
    18:00 +5°C° 0.3 mm 9 mps 741 mmHg 80%
    19:00 +5°C° 0.3 mm 8 mps 741 mmHg 80%
    20:00 +5°C° 0.3 mm 8 mps 742 mmHg 80%
    21:00 +5°C° 0.1 mm 7 mps 742 mmHg 80%
    22:00 +4°C° 0.1 mm 7 mps 743 mmHg 80%
    23:00 +4°C° 0.1 mm 7 mps 743 mmHg 79%

    26 September, Wednesday

    Time Temperature Precipitation Wind Pressure Humidity
    00:00 +4°C° 0 mm 7 mps 744 mmHg 80%
    01:00 +3°C° 0 mm 7 mps 744 mmHg 81%
    02:00 +3°C° 0 mm 6 mps 745 mmHg 83%
    03:00 +2°C° 0 mm 6 mps 745 mmHg 82%
    04:00 +2°C° 0 mm 6 mps 745 mmHg 82%
    05:00 +1°C° 0 mm 6 mps 746 mmHg 81%
    06:00 +2°C° 0 mm 6 mps 746 mmHg 77%
    07:00 +2°C° 0 mm 6 mps 746 mmHg 72%
    08:00 +3°C° 0 mm 6 mps 747 mmHg 68%
    09:00 +4°C° 0 mm 6 mps 747 mmHg 63%
    10:00 +5°C° 0 mm 6 mps 746 mmHg 58%
    11:00 +7°C° 0 mm 6 mps 746 mmHg 54%
    12:00 +7°C° 0.4 mm 6 mps 746 mmHg 62%
    13:00 +5°C° 0.4 mm 6 mps 745 mmHg 70%
    14:00 +5°C° 0.4 mm 6 mps 745 mmHg 78%
    15:00 +6°C° 0.7 mm 5 mps 744 mmHg 81%
    16:00 +6°C° 0.7 mm 5 mps 744 mmHg 84%
    17:00 +5°C° 0.7 mm 4 mps 744 mmHg 88%
    18:00 +5°C° 0.2 mm 4 mps 744 mmHg 89%
    19:00 +5°C° 0.2 mm 4 mps 745 mmHg 90%
    20:00 +4°C° 0.2 mm 4 mps 745 mmHg 91%
    21:00 +4°C° 0 mm 4 mps 746 mmHg 92%
    22:00 +3°C° 0 mm 4 mps 746 mmHg 94%
    23:00 +3°C° 0 mm 4 mps 747 mmHg 95%
    Show more